Tracking 19250 objects as of 23-Sep-2018
HD Live streaming from Space Station
objects crossing your sky now

FENGYUN 1C DEB

Track FENGYUN 1C DEB now!
10-day predictions


NORAD ID: 30687
Int'l Code: 1999-025AQV
Perigee: 422.1 km
Apogee: 437.8 km
Inclination: 99.0 °
Period: 93.0 minutes
Semi major axis: 6800 km
RCS: 0.02 m2 (small)
Launch date: May 10, 1999
Source: People's Republic of China (PRC)
Launch site: Taiyaun Space Center, China (TSC)

Note: This is SATELLITE DEBRIS
aabbcc
Your satellite tracking list
Your tracking list is empty




NASA's NSSDC Master Catalog

Two Line Element Set (TLE):
1 30687U 99025AQV 18265.69940133 +.00113390 +00000-0 +21442-2 0  9998
2 30687 098.9665 335.4941 0011566 214.5935 145.4559 15.47915489620268
Source of the keplerian elements: AFSPC